📊 Raw Sensor Data

Showing records 39001 to 39025 of 84,939 total

ID Distance (ft) Battery V Battery A Int Temp (°F) Int Humid (%) Ext Temp (°F) Solar V RSSI SNR Time Stamp
45951 15.3 3.92 -5 62 45 64 0.00 -71 8 07/11/2025 01:30 AM
45950 15.3 3.92 -5 63 46 63 0.00 -70 8 07/11/2025 01:15 AM
45949 15.3 3.92 -5 64 46 64 0.10 -70 8 07/11/2025 01:00 AM
45948 15.3 3.92 -5 64 46 65 0.00 -71 8 07/11/2025 12:45 AM
45947 15.3 3.92 -5 66 46 65 0.00 -70 7 07/11/2025 12:30 AM
45946 15.4 3.92 -5 67 46 67 0.10 -70 7 07/11/2025 12:15 AM
45945 15.3 3.98 -5 68 46 69 0.00 -69 7 07/11/2025 12:00 AM
45944 15.4 3.98 -5 68 46 69 0.00 -70 8 07/10/2025 11:45 PM
45943 15.4 3.92 -5 69 46 71 0.00 -70 8 07/10/2025 11:30 PM
45942 15.4 3.92 -5 70 46 72 0.00 -69 8 07/10/2025 11:15 PM
45941 15.4 3.98 -5 71 46 73 0.00 -69 8 07/10/2025 11:00 PM
45940 15.4 3.92 -5 71 47 73 0.00 -70 8 07/10/2025 10:45 PM
45939 15.4 3.93 -5 72 47 73 0.00 -71 8 07/10/2025 10:30 PM
45938 15.4 3.93 -5 73 48 74 0.10 -71 8 07/10/2025 10:15 PM
45937 15.4 3.93 -5 73 49 73 0.10 -71 8 07/10/2025 10:00 PM
45936 15.4 3.93 -5 74 50 74 0.00 -71 8 07/10/2025 09:45 PM
45935 15.4 3.93 -5 75 51 75 0.00 -70 8 07/10/2025 09:30 PM
45934 15.4 3.93 -5 76 52 76 0.00 -70 8 07/10/2025 09:15 PM
45933 15.4 3.93 -5 78 54 77 0.00 -70 8 07/10/2025 09:00 PM
45932 15.4 3.99 -5 80 55 78 0.70 -72 6 07/10/2025 08:45 PM
45931 15.4 3.92 -10 83 57 80 4.20 -71 7 07/10/2025 08:30 PM
45930 15.5 3.94 0 88 56 83 4.50 -72 8 07/10/2025 08:15 PM
45929 15.6 4.01 0 93 55 87 4.50 -72 7 07/10/2025 08:00 PM
45928 15.5 4.02 8 97 54 91 4.60 -72 8 07/10/2025 07:45 PM
45927 15.6 4.02 -8 100 54 93 4.50 -73 8 07/10/2025 07:30 PM